This is the latest recevied weather packets stored in our database for station/object KI5RAB. If no packets are shown the sender has not sent any weather packets the latest 1 day(s).
| Time | Temp. | Humidity | Pressure | Rain* | Wind** | Luminosity | Snow |
|---|---|---|---|---|---|---|---|
| 1778033136 | 27.78° C | 78% | 1010 hPa | 0 mm | 0.45 m/s, 42° | 0 W/m² | - |
| 1778032833 | 27.78° C | 77% | 1009.8 hPa | 0 mm | 0 m/s | 0 W/m² | - |
| 1778032530 | 27.78° C | 77% | 1009.7 hPa | 0 mm | 0.45 m/s, 22° | 0 W/m² | - |
| 1778032227 | 28.33° C | 76% | 1009.6 hPa | 0 mm | 1.79 m/s, 9° | 0 W/m² | - |
| 1778031925 | 28.33° C | 75% | 1009.6 hPa | 0 mm | 0 m/s | 0 W/m² | - |
| 1778031621 | 28.33° C | 75% | 1009.5 hPa | 0 mm | 0 m/s | 0 W/m² | - |
| 1778031319 | 28.33° C | 75% | 1009.5 hPa | 0 mm | 0 m/s | 0 W/m² | - |
| 1778031015 | 28.33° C | 75% | 1009.4 hPa | 0 mm | 0.89 m/s, 23° | 0 W/m² | - |
| 1778030711 | 28.89° C | 74% | 1009.2 hPa | 0 mm | 1.34 m/s, 13° | 0 W/m² | - |
| 1778030408 | 28.89° C | 74% | 1009.1 hPa | 0 mm | 2.24 m/s, 80° | 0 W/m² | - |
| 1778030106 | 28.89° C | 73% | 1009.2 hPa | 0 mm | 0.45 m/s, 9° | 1 W/m² | - |
| 1778029802 | 28.89° C | 73% | 1009.1 hPa | 0 mm | 0.89 m/s, 352° | 2 W/m² | - |
| 1778029501 | 28.89° C | 73% | 1008.9 hPa | 0 mm | 0 m/s | 3 W/m² | - |
| 1778029197 | 28.89° C | 72% | 1008.9 hPa | 0 mm | 0.89 m/s, 332° | 7 W/m² | - |
| 1778028895 | 29.44° C | 72% | 1008.9 hPa | 0 mm | 0.89 m/s, 40° | 10 W/m² | - |
| 1778028590 | 28.89° C | 72% | 1008.8 hPa | 0 mm | 0.89 m/s, 21° | 12 W/m² | - |
| 1778028288 | 29.44° C | 72% | 1008.7 hPa | 0 mm | 0.89 m/s, 32° | 14 W/m² | - |
| 1778027984 | 29.44° C | 72% | 1008.9 hPa | 0 mm | 0.45 m/s, 21° | 19 W/m² | - |
| 1778027681 | 29.44° C | 71% | 1008.9 hPa | 0 mm | 0 m/s | 29 W/m² | - |
| 1778027377 | 29.44° C | 71% | 1008.9 hPa | 0 mm | 0 m/s | 27 W/m² | - |
| 1778027073 | 29.44° C | 71% | 1008.7 hPa | 0 mm | 0 m/s | 36 W/m² | - |
| 1778026768 | 30° C | 70% | 1008.8 hPa | 0 mm | 0.45 m/s, 81° | 36 W/m² | - |
| 1778026466 | 30.56° C | 70% | 1008.7 hPa | 0 mm | 0 m/s | 46 W/m² | - |
| 1778026163 | 30.56° C | 69% | 1008.8 hPa | 0 mm | 0 m/s | 69 W/m² | - |
| 1778025860 | 30.56° C | 68% | 1008.8 hPa | 0 mm | 0 m/s | 73 W/m² | - |
* Rain latest hour (hover to see other rain measurements)
** Current wind speed in m/s (hover to see current wind gust speed)